Location: Camp at the Woods
(43.2055°N, 93.0905°W)
Time: 11:18:21
(UTC+00:00)

NOAA 6 - Pass Details

Date: 05 December 2023
Orbit: 770 x 784 km, 98.6° (Epoch: 21 February)

Event Time Altitude Azimuth Distance (km) Brightness Sun altitude
Rises 23:40:13 0° 143° (SE) 3,247 7.1 -11.2°
Reaches altitude 10° 23:42:39 10° 136° (SE) 2,321 6.3 -11.6°
Maximum altitude 23:47:23 40° 68° (ENE) 1,136 4.4 -12.4°
Drops below altitude 10° 23:52:08 10° 1° (N) 2,328 6.3 -13.2°
Sets 23:54:34 0° 354° (N) 3,258 7.1 -13.7°
